Погода в Черноусове

Россия / Свердловская область     56°34′36″N   61°14′54″E
темп.,
°C
ветер,
м/с
пор.,
м/с
влажн.,
%
обл.,
%
осадки,
мм/ч
давл.,
гПа
погр.,
м
7 мая, пт
пт723:00+6з37610 0.0 1016139
02:00+4з37710 0.0 1018135
05:00+4з25793 0.0 102082
08:00+10з356113 0.0 1019329
11:00+16зюз34426 0.0 10191327
14:00+19зюз34315 0.0 10181930
17:00+20зюз33296 0.0 10182190
20:00+16юз22435 0.0 101814
8 мая, сб
сб823:00+11ююз235357 0.0 101946
02:00+10ююз25585 0.0 101976
05:00+8юз226138 0.0 101912
08:00+13ю234698 0.0 1019185
11:00+19ю222993 0.0 10181667
14:00+20ююв2124100 0.0 10172580
17:00+20юв222390 0.0 10162538
20:00+16вюв2236100 0.0 101714
9 мая, вс
вс923:00+12юз114399 0.0 101710
02:00+11с2251100 0.0 101722
05:00+10ссв2258100 0.0 101813
08:00+14ссв2453100 0.0 1018243
11:00+18всв3439100 0.0 10171042
14:00+19вюв2633100 0.0 10171871
17:00+17сз344497 0.0 1017408
20:00+16с355794 0.0 1018122
10 мая, пн
пн1023:00+13с356686 0.0 101889
02:00+11св277070 0.0 1019133
05:00+11св227498 0.0 102128
08:00+15всв2359100 0.0 1021253
11:00+20всв224195 0.0 10221009
14:00+22всв223167 0.0 10212700
17:00+22с11287 0.0 10202659
20:00+18зсз22453 0.0 102023
11 мая, вт
вт1123:00+14з355650 0.0 102180
02:00+13зсз2267100 0.0 102131
05:00+12зюз2269100 0.0 102115
08:00+16зсз3557100 0.0 1021286
11:00+15сз4666100 0.0 1022568
14:00+15зсз4574100 0.9 1022649
17:00+12сз4787100 2.1 1024528
20:00+10ссз478796 0.1 1025531